Location: Area 52 Observatory
(34.2620°N, 119.2590°W)
Time: 02:44:31
(UTC-07:00)

Tiangong 2 - Pass Details

Date: 25 March 2019
Orbit: 378 x 390 km, 42.8° (Epoch: 25 April)

Event Time Altitude Azimuth Distance (km) Brightness Sun altitude
Exits shadow 05:40:45 23° 198° (SSW) 854 2.5 -15.8°
Drops below altitude 10° 05:42:49 10° 160° (SSE) 1,394 4.0 -15.4°
Sets 05:45:06 0° 146° (SE) 2,246 5.2 -14.9°
